Weather History for Knoxville, TN

Change the Weather History Date:

Sunday, February 3, 2013

  Actual Average Record
Temperature  
Mean Temperature 37 °F 40 °F  
Max Temperature 46 °F 49 °F 72 °F (1986)
Min Temperature 28 °F 30 °F 2 °F (1917)
Degree Days  
Heating Degree Days 28 25  
Month to date heating degree days 96 76  
Since 1 July heating degree days 2144 2338  
Cooling Degree Days 0 0  
Month to date cooling degree days 0 0  
Year to date cooling degree days 2 0  
Moisture  
Dew Point 28 °F    
Average Humidity 67    
Maximum Humidity 89    
Minimum Humidity 45    
Precipitation  
Precipitation 0.07 in 0.15 in 3.26 in (1894)
Month to date precipitation 0.09 0.46  
Year to date precipitation 12.76 4.78  
Snow  
Snow 0.50 in 0.00 in - ()
Month to date snowfall 1.2 0.2  
Since 1 July snowfall 2.6 3.7  
Snow Depth 0.00 in    
Sea Level Pressure  
Sea Level Pressure 30.06 in    
Wind  
Wind Speed 9 mph (WSW)    
Max Wind Speed 22 mph    
Max Gust Speed 29 mph    
Visibility 8 miles    
Events Rain , Snow    
T = Trace of Precipitation, MM = Missing Value Source: NWS Daily Summary

Daily Weather History Graph

Daily Weather History Graph

Search for Another Location

Airport:

Trip Planner

Search our weather history database for the weather conditions in past years. The results will help you decide how hot, cold, wet, or windy it might be!

Date:

Astronomy

Feb. 03, 2013 Rise Set
Actual Time 7:34 AM EST 6:05 PM EST
Civil Twilight 7:07 AM EST 6:32 PM EST
Nautical Twilight 6:37 AM EST 7:02 PM EST
Astronomical Twilight 6:07 AM EST 7:32 PM EST
Moon 1:00 AM EST (2/3) 11:43 AM EST (2/3)
Length of Visible Light 11h 24m
Length of Day
10h 31m
Waning Gibbous, 49% of the Moon is Illuminated
Feb 3
Waning Gibbous
Feb 10
New
Feb 17
First Quarter
Feb 25
Full
Mar 4
Last Quarter

Hourly Weather History & Observations

Time (EST) Temp. Windchill Dew Point Humidity Pressure Visibility Wind Dir Wind Speed Gust Speed Precip Events Conditions
12:53 AM 36.0 °F 29.0 °F 28.9 °F 76% 30.12 in 10.0 mi WSW 9.2 mph - 0.00 in Rain , Snow Light Rain
1:53 AM 36.0 °F 30.3 °F 28.9 °F 76% 30.11 in 10.0 mi SW 6.9 mph - 0.00 in   Overcast
2:53 AM 36.0 °F 28.0 °F 28.9 °F 76% 30.11 in 9.0 mi SW 11.5 mph - 0.00 in Snow Light Snow
3:01 AM 35.6 °F 28.6 °F 28.4 °F 75% 30.08 in 9.0 mi WSW 9.2 mph - 0.00 in Snow Light Snow
3:11 AM 35.6 °F 28.0 °F 28.4 °F 75% 30.08 in 9.0 mi SW 10.4 mph - 0.00 in Snow Light Snow
3:53 AM 35.1 °F 28.6 °F 28.9 °F 78% 30.08 in 10.0 mi SSW 8.1 mph - 0.00 in   Overcast
4:53 AM 35.1 °F 28.6 °F 28.0 °F 76% 30.05 in 10.0 mi SSW 8.1 mph - N/A   Overcast
5:53 AM 35.1 °F 27.4 °F 28.9 °F 78% 30.03 in 10.0 mi SSW 10.4 mph - N/A   Overcast
6:53 AM 35.1 °F 28.6 °F 28.0 °F 76% 30.01 in 9.0 mi SW 8.1 mph - 0.00 in Snow Light Snow
7:07 AM 35.6 °F 26.6 °F 28.4 °F 75% 30.02 in 5.0 mi WSW 13.8 mph - 0.00 in Snow Light Snow
7:09 AM 35.6 °F 27.1 °F 28.4 °F 75% 30.02 in 1.5 mi WSW 12.7 mph - 0.00 in Snow Heavy Snow
7:14 AM 33.8 °F 24.8 °F 28.4 °F 81% 30.01 in 1.0 mi SW 12.7 mph - 0.01 in Snow Heavy Snow
7:24 AM 33.8 °F 23.9 °F 30.2 °F 87% 30.02 in 1.0 mi WSW 15.0 mph - 0.02 in Snow Heavy Snow
7:38 AM 33.8 °F 25.3 °F 30.2 °F 87% 30.01 in 1.0 mi SW 11.5 mph - 0.04 in Snow Heavy Snow
7:47 AM 32.0 °F 23.6 °F 30.2 °F 93% 30.02 in 1.5 mi SW 10.4 mph - 0.05 in Snow Heavy Snow
7:53 AM 33.1 °F 24.9 °F 30.9 °F 92% 30.04 in 1.5 mi SW 10.4 mph - 0.05 in Snow Heavy Snow
8:03 AM 33.8 °F 25.3 °F 30.2 °F 87% 30.02 in 1.5 mi SW 11.5 mph - 0.00 in Snow Light Snow
8:13 AM 33.8 °F 25.8 °F 30.2 °F 87% 30.03 in 1.5 mi SW 10.4 mph - 0.01 in Snow Light Snow
8:25 AM 33.8 °F 25.3 °F 30.2 °F 87% 30.01 in 3.0 mi SSW 11.5 mph - 0.01 in Snow Light Snow
8:41 AM 33.8 °F 26.4 °F 30.2 °F 87% 30.01 in 2.0 mi SSW 9.2 mph - 0.02 in Snow Light Snow
8:53 AM 33.1 °F 24.9 °F 30.9 °F 92% 30.03 in 4.0 mi SSW 10.4 mph - 0.02 in Snow Light Snow
9:42 AM 33.8 °F 25.8 °F 32.0 °F 93% 29.99 in 9.0 mi SSW 10.4 mph - 0.00 in   Overcast
9:53 AM 35.1 °F 27.9 °F 33.1 °F 92% 30.01 in 10.0 mi SSW 9.2 mph - 0.00 in   Overcast
10:38 AM 37.4 °F 28.5 °F 33.8 °F 87% 30.01 in 10.0 mi WSW 15.0 mph - N/A   Overcast
10:53 AM 37.9 °F 28.5 °F 34.0 °F 86% 30.02 in 10.0 mi SW 17.3 mph - N/A   Overcast
11:19 AM 39.2 °F 31.2 °F 35.6 °F 87% 30.01 in 10.0 mi SW 13.8 mph - N/A   Overcast
11:53 AM 41.0 °F 33.9 °F 34.0 °F 76% 30.03 in 10.0 mi WSW 12.7 mph - N/A   Overcast
12:53 PM 41.0 °F 33.9 °F 32.0 °F 70% 30.03 in 10.0 mi West 12.7 mph - N/A   Overcast
1:53 PM 42.1 °F 35.2 °F 30.0 °F 62% 30.03 in 10.0 mi West 12.7 mph 24.2 mph N/A   Mostly Cloudy
2:53 PM 46.0 °F 40.2 °F 28.0 °F 50% 30.03 in 10.0 mi WNW 12.7 mph - N/A   Mostly Cloudy
3:53 PM 44.1 °F 38.6 °F 26.1 °F 49% 30.05 in 10.0 mi WNW 10.4 mph 18.4 mph N/A   Overcast
4:53 PM 44.1 °F 37.1 °F 24.1 °F 45% 30.07 in 10.0 mi WNW 15.0 mph 28.8 mph N/A   Scattered Clouds
5:53 PM 39.0 °F 33.4 °F 21.9 °F 50% 30.10 in 10.0 mi NW 8.1 mph 16.1 mph N/A   Scattered Clouds
6:53 PM 37.0 °F 28.9 °F 21.9 °F 54% 30.14 in 10.0 mi WNW 12.7 mph 20.7 mph N/A   Mostly Cloudy
7:53 PM 36.0 °F 29.6 °F 21.9 °F 57% 30.16 in 10.0 mi West 8.1 mph - N/A   Mostly Cloudy
8:53 PM 33.1 °F 27.7 °F 21.9 °F 64% 30.17 in 10.0 mi West 5.8 mph - N/A   Mostly Cloudy
9:53 PM 33.1 °F - 21.9 °F 64% 30.18 in 10.0 mi Calm Calm - N/A   Partly Cloudy
10:53 PM 28.9 °F 23.9 °F 19.9 °F 69% 30.18 in 10.0 mi East 4.6 mph - N/A   Partly Cloudy
11:53 PM 28.9 °F - 21.0 °F 72% 30.17 in 10.0 mi Calm Calm - N/A   Partly Cloudy